Location: Baia de Cri?
(46.1667°N, 22.7167°E)
Time: 21:23:05
(UTC+00:00)

CZ-4C R/B - Pass Details

Date: 15 January 2026
Orbit: 483 x 1496 km, 63.4° (Epoch: 10 February)

Event Time Altitude Azimuth Distance (km) Brightness Sun altitude
Exits shadow 02:48:15 15° 8° (N) 2,267 4.5 -34.0°
Drops below altitude 10° 02:50:55 10° 31° (NNE) 2,765 5.2 -33.5°
Sets 02:55:10 0° 52° (NE) 3,960 6.4 -32.8°
